This is the latest recevied weather packets stored in our database for station/object K7UHP. If no packets are shown the sender has not sent any weather packets the latest 10 day(s).
| Time | Temp. | Humidity | Pressure | Rain* | Wind** | Luminosity | Snow |
|---|---|---|---|---|---|---|---|
| 1777505942 | 15.56° C | 32% | 1018.6 hPa | 0 mm | - | - | - |
| 1777505341 | 15.56° C | 33% | 1018.6 hPa | 0 mm | - | - | - |
| 1777504741 | 16.11° C | 30% | 1018.6 hPa | 0 mm | - | - | - |
| 1777504140 | 16.11° C | 31% | 1018.5 hPa | 0 mm | - | - | - |
| 1777503539 | 16.11° C | 28% | 1018.5 hPa | 0 mm | - | - | - |
| 1777502939 | 16.11° C | 27% | 1018.6 hPa | 0 mm | - | - | - |
| 1777502309 | 16.67° C | 27% | 1018.7 hPa | 0 mm | - | - | - |
| 1777501709 | 16.11° C | 27% | 1018.6 hPa | 0 mm | - | - | - |
| 1777501109 | 16.11° C | 25% | 1018.7 hPa | 0 mm | - | - | - |
| 1777500479 | 15.56° C | 26% | 1018.7 hPa | 0 mm | - | - | - |
| 1777499879 | 16.11° C | 27% | 1018.9 hPa | 0 mm | - | - | - |
| 1777499279 | 16.11° C | 29% | 1018.9 hPa | 0 mm | - | - | - |
| 1777498679 | 16.11° C | 28% | 1019 hPa | 0 mm | - | - | - |
| 1777498049 | 16.11° C | 28% | 1019 hPa | 0 mm | - | - | - |
| 1777497449 | 15.56° C | 28% | 1019.1 hPa | 0 mm | - | - | - |
| 1777496819 | 15.56° C | 29% | 1019.3 hPa | 0 mm | - | - | - |
| 1777496189 | 16.11° C | 28% | 1019.3 hPa | 0 mm | - | - | - |
| 1777495589 | 16.11° C | 28% | 1019.2 hPa | 0 mm | - | - | - |
| 1777494959 | 15.56° C | 28% | 1019.3 hPa | 0 mm | - | - | - |
| 1777494359 | 15.56° C | 28% | 1019.4 hPa | 0 mm | - | - | - |
| 1777493759 | 15.56° C | 27% | 1019.4 hPa | 0 mm | - | - | - |
| 1777493159 | 15.56° C | 27% | 1019.4 hPa | 0 mm | - | - | - |
| 1777492559 | 15° C | 26% | 1019.4 hPa | 0 mm | - | - | - |
| 1777491929 | 15° C | 27% | 1019.6 hPa | 0 mm | - | - | - |
| 1777491329 | 15° C | 28% | 1019.6 hPa | 0 mm | - | - | - |
* Rain latest hour (hover to see other rain measurements)
** Current wind speed in m/s (hover to see current wind gust speed)